SCP
0 0 0 0 0 0 0 0 0 0 0 0 0 0 0 0 0 0 0 0 0 0 0 0 0 0 0 0 0 0 0 0 0 1 1 1 1 1
0 0 0 0 0 0 0 0 0 0 0 0 0 0 0 0 0 0 0 0 0 0 0 0 0 0 0 0 0 0 0 0 0 0 0 0 1 1
0 0 0 0 0 0 0 0 0 0 0 0 1 1 0 0 0 0 0 0 0 0 0 0 0 0 0 0 0 0 0 0 0 0 0 0 0 0
1 1 0 0 0 0 0 0 0 0 1 1 1 1 1 0 0 0 0 0 0 0 0 0 0 0 0 0 0 0 0 0 0 0 0 0 0 0
1 1 0 0 0 0 0 0 1 1 1 1 1 1 1 0 0 0 0 0 0 0 0 0 0 0 0 0 0 0 0 0 0 0 0 0 0 0
1 1 1 0 0 0 0 0 0 1 1 0 0 0 0 0 0 0 0 0 1 1 1 1 1 0 0 0 0 0 0 0 0 0 0 0 0 0
1 1 1 0 0 0 0 0 0 0 0 0 0 0 0 0 0 0 0 0 0 1 1 1 1 1 1 0 0 0 0 0 0 0 0 0 0 0
1 1 1 0 0 0 0 0 0 0 0 0 0 0 0 0 0 0 0 0 0 0 1 1 1 1 1 1 0 0 0 0 0 0 0 0 0 0
0 1 1 0 0 0 0 0 0 0 0 0 0 0 0 0 0 0 0 0 0 0 0 1 1 1 1 1 1 0 0 0 0 0 0 0 0 0
0 0 0 0 0 0 0 0 0 0 0 0 0 0 0 0 0 0 0 0 0 0 0 0 1 1 1 1 1 0 0 0 0 0 0 0 0 0
0 0 0 0 0 0 0 0 0 0 0 0 0 0 0 0 0 0 0 0 0 0 0 0 0 0 0 1 1 0 0 0 0 0 0 0 0 0
1 0 0 0 0 0 0 0 0 0 0 0 0 0 0 0 0 0 0 0 0 0 0 0 0 0 0 0 1 0 0 0 0 0 0 0 0 0
1 1 0 0 0 0 0 0 0 0 0 0 0 0 0 0 0 0 0 0 0 0 0 0 0 0 0 0 0 0 0 0 0 0 0 0 0 0
2 1 0 0 0 0 0 0 0 0 0 0 0 0 0 0 0 0 0 0 0 0 0 0 0 0 0 0 0 0 0 0 0 0 0 0 0 0
2 1 0 0 0 0 0 0 0 0 0 0 0 0 0 0 0 0 0 0 0 0 0 0 0 0 0 0 0 0 0 0 0 0 0 0 0 0
1 1 0 0 0 0 0 0 0 0 0 0 0 0 0 0 0 0 0 0 0 0 0 0 0 0 0 0 0 0 0 0 0 0 0 0 0 0
1 1 0 0 0 0 0 0 0 0 0 0 0 0 0 0 0 0 0 0 0 0 0 0 0 0 0 0 0 0 0 0 0 0 0 0 0 0
1 1 1 0 0 0 0 0 0 0 0 0 0 0 0 0 0 0 0 0 0 0 0 0 0 0 0 0 0 0 0 0 0 0 0 0 0 0
2 2 1 0 0 0 0 0 0 0 0 0 0 0 0 0 0 0 0 0 0 0 0 0 0 0 0 0 0 0 0 0 0 0 0 0 0 0
2 3 2 0 0 0 0 0 0 0 0 0 0 0 0 0 0 0 0 0 0 0 0 0 0 0 0 0 0 0 0 0 0 0 0 0 0 0
2 2 1 0 0 0 0 0 0 0 0 0 0 0 0 0 0 0 0 0 0 0 0 0 0 0 0 0 0 0 0 0 0 0 0 0 0 0
1 1 1 0 0 0 0 0 0 0 0 0 0 0 0 0 0 0 0 0 0 0 0 0 0 0 0 0 0 0 0 0 0 0 0 0 0 0
1 1 0 0 0 0 0 0 0 0 0 0 0 0 0 0 0 0 0 0 0 0 0 0 0 0 0 0 0 0 0 0 0 0 0 0 0 0
Wind_Speed
2 3 2 2 2 3 3 3 3 3 2 2 1 1 1 1 2 2 2 5 5 4 4 4 4 4 3 3 3 4 3 3 3 2 2 1 1 0
1 1 1 1 1 1 2 2 3 3 2 1 1 1 1 2 4 3 4 7 7 6 6 6 7 6 6 5 5 5 5 5 5 4 4 3 3 3
1 1 1 1 1 0 1 1 1 2 2 1 1 1 2 2 3 3 3 4 4 8 8 8 8 8 8 7 7 7 7 7 6 6 5 5 5 4
1 1 0 0 0 0 1 1 1 2 2 2 1 1 2 3 3 4 3 4 4 7 8 8 8 8 8 7 8 8 8 9 9 9 8 8 8 8
1 1 1 1 1 1 1 1 1 1 1 2 2 1 2 2 3 4 4 3 4 5 7 8 8 8 8 8 8 8 8 8 8 8 8 8 8 7
2 2 2 2 1 1 1 1 2 2 2 3 3 2 2 2 2 3 3 3 3 3 5 5 7 8 8 8 7 7 7 7 7 7 7 7 7 7
3 3 3 4 4 3 2 2 2 3 3 3 3 2 2 2 2 2 2 2 2 2 2 2 3 3 4 5 6 6 6 6 6 6 6 6 6 6
3 3 3 4 5 6 6 6 5 3 3 2 2 2 1 1 1 2 2 2 1 1 1 1 2 2 2 2 4 5 5 5 6 6 6 5 5 5
2 2 2 3 4 4 6 7 7 6 4 3 3 2 2 2 3 3 2 2 1 1 1 1 1 1 1 2 3 3 3 4 4 5 4 4 4 4
2 2 3 3 3 4 5 6 5 5 4 3 2 1 1 2 3 3 3 4 3 2 1 1 0 0 0 0 1 1 1 2 2 2 2 2 2 2
3 3 3 3 4 6 5 5 5 4 6 7 7 6 6 5 4 4 4 3 2 1 0 1 0 0 0 0 0 0 0 1 1 1 0 0 0 0
3 3 4 4 5 5 4 4 4 2 3 5 6 6 6 6 6 3 3 3 2 1 0 1 1 1 1 0 0 0 0 0 0 1 1 1 1 1
3 2 2 5 6 5 4 3 4 4 4 5 4 4 4 4 3 3 2 2 2 1 1 2 1 1 1 0 0 0 0 0 1 1 2 2 2 3
2 2 2 5 6 6 4 5 6 5 4 4 4 3 3 3 2 2 2 2 1 1 1 2 1 1 1 1 1 1 1 1 1 1 1 1 2 3
3 4 5 6 6 5 6 6 5 3 3 3 2 1 1 1 1 2 3 2 3 2 1 1 1 1 1 1 1 0 1 1 1 1 1 1 1 1
3 5 7 7 5 5 4 4 3 2 2 2 1 1 1 1 2 2 2 2 2 2 2 2 1 1 1 0 1 1 1 1 1 1 1 1 2 2
4 3 3 3 3 2 2 2 2 2 2 1 1 1 1 2 1 1 1 1 1 1 2 2 1 0 0 1 1 1 1 1 1 1 1 1 2 2
4 2 2 2 2 1 1 1 1 1 1 1 1 1 1 1 1 1 1 1 1 0 1 1 1 1 0 1 2 2 1 1 1 1 1 2 2 2
3 2 1 1 1 1 1 1 0 0 1 1 1 1 1 1 1 1 1 0 0 0 1 0 0 0 1 2 1 2 2 1 1 1 1 2 3 3
1 2 2 2 1 1 1 1 1 1 1 1 1 1 1 1 1 1 1 1 1 0 1 1 1 2 2 2 2 2 4 4 2 2 2 2 3 4
1 2 2 1 1 1 1 1 1 1 1 1 2 2 2 2 2 2 2 1 1 1 2 3 2 2 1 1 2 2 2 4 5 4 3 2 3 3
2 2 2 2 2 2 2 1 1 2 2 2 2 2 2 3 3 3 3 3 3 3 3 3 1 1 2 2 3 3 3 3 4 8 9 7 4 4
2 2 2 2 2 2 2 2 2 2 2 3 3 3 3 3 3 3 3 4 3 3 3 3 2 2 2 3 4 4 5 5 3 3 4 7 12 13
Wind_Direction
198 196 202 210 202 209 202 191 193 224 242 218 202 138 127 104 91 98 102 96 101 102 104 107 103 103 104 105 112 118 119 121 120 118 107 101 108 135
159 152 175 217 207 207 207 209 208 207 225 198 199 177 140 116 100 100 95 90 87 95 96 95 92 89 89 92 96 102 104 104 101 98 100 98 91 86
135 148 172 157 170 204 204 198 195 185 204 210 120 104 109 108 85 77 76 80 80 84 88 91 91 90 89 88 88 87 88 88 89 88 89 90 88 86
154 134 175 153 125 148 180 192 186 180 174 179 135 103 99 114 97 86 78 78 77 78 84 87 89 89 89 89 88 86 84 81 78 76 75 78 78 75
126 127 122 111 95 66 87 109 132 132 138 149 138 100 85 102 93 84 77 63 72 77 80 79 80 84 85 87 89 89 87 85 82 79 75 73 74 74
81 86 83 92 93 90 88 90 107 108 109 120 117 109 102 100 107 109 93 66 65 61 63 67 71 77 79 84 89 91 91 89 85 82 78 74 74 73
75 66 70 77 79 85 91 95 107 109 111 116 117 117 117 131 138 130 123 104 65 51 66 57 60 64 66 70 77 84 92 92 89 87 84 80 76 75
89 73 68 61 72 76 77 82 94 113 128 126 129 141 149 152 123 135 136 139 121 33 87 65 57 62 56 67 68 80 92 94 94 90 86 82 77 73
93 90 81 67 78 85 77 73 69 70 92 131 138 152 162 178 157 148 148 140 132 139 127 92 48 58 33 57 71 79 83 88 93 92 86 79 73 67
83 95 98 78 87 101 93 78 65 55 62 81 107 117 128 153 161 154 140 114 91 65 85 134 102 272 309 13 65 104 100 98 105 106 95 80 67 61
76 81 97 92 91 103 102 93 75 57 61 73 74 74 80 93 110 113 115 122 103 75 40 144 161 239 277 295 33 96 185 212 216 202 207 2 32 349
79 70 79 93 94 104 110 112 101 72 70 68 62 58 65 78 85 106 139 137 120 116 139 160 137 157 164 156 6 182 189 190 239 243 259 267 257 240
97 76 68 88 93 97 102 104 117 113 93 84 74 64 60 62 63 65 79 117 127 127 160 162 136 145 155 169 258 264 241 248 252 257 246 246 238 217
112 98 87 95 94 91 92 101 105 102 95 89 79 65 56 49 46 51 60 67 64 90 146 156 145 167 167 172 198 233 231 231 247 265 284 266 239 228
104 101 94 94 93 85 86 95 99 98 100 97 90 67 38 38 55 62 56 64 67 62 90 143 140 150 179 186 186 204 242 247 235 253 265 269 270 252
99 92 89 86 81 78 78 80 86 101 113 111 103 78 66 64 59 56 60 49 55 41 43 57 98 147 162 184 198 222 237 258 279 274 275 273 265 244
116 90 79 79 75 70 69 69 76 95 97 100 106 93 79 74 58 46 65 72 71 39 14 21 38 76 176 200 214 241 253 259 255 259 254 279 279 270
118 106 108 109 111 112 107 84 73 85 89 108 116 119 116 105 80 67 72 89 92 53 12 1 4 38 111 194 226 249 257 261 265 230 229 258 278 276
113 130 148 156 161 157 158 163 178 168 140 147 163 166 160 148 132 124 116 122 175 281 310 325 326 226 281 294 294 211 230 256 254 248 242 246 264 280
144 173 191 193 188 194 200 211 214 188 177 183 190 195 191 189 191 194 191 202 227 279 293 270 231 229 242 272 285 280 222 230 241 254 258 251 262 274
184 201 205 205 203 206 212 211 213 212 205 196 201 201 199 201 216 218 212 211 228 245 263 270 268 240 226 226 256 276 265 224 226 241 252 263 275 278
203 214 215 213 212 214 215 208 205 213 213 211 219 218 211 210 215 222 221 222 232 241 254 267 260 191 194 227 263 282 289 287 250 233 236 234 251 268
220 222 225 228 224 213 209 210 216 222 223 224 226 224 219 222 226 224 227 232 240 250 261 264 250 225 232 240 253 267 273 280 283 283 271 246 237 248